This is the latest recevied weather packets stored in our database for station/object KF6YUA. If no packets are shown the sender has not sent any weather packets the latest 1 day(s).
| Time | Temp. | Humidity | Pressure | Rain* | Wind** | Luminosity | Snow |
|---|---|---|---|---|---|---|---|
| 1778016621 | 18.33° C | 76% | 1017.5 hPa | 0 mm | 0 m/s | 421 W/m² | - |
| 1778016317 | 17.78° C | 74% | 1017.6 hPa | 0 mm | 0 m/s | 328 W/m² | - |
| 1778016015 | 18.89° C | 73% | 1017.7 hPa | 0 mm | 0.89 m/s, 176° | 343 W/m² | - |
| 1778015712 | 18.33° C | 76% | 1017.6 hPa | 0 mm | 0 m/s | 269 W/m² | - |
| 1778015408 | 18.33° C | 76% | 1017.7 hPa | 0 mm | 0 m/s | 240 W/m² | - |
| 1778015105 | 17.78° C | 75% | 1017.6 hPa | 0 mm | 1.34 m/s, 157° | 246 W/m² | - |
| 1778014802 | 17.78° C | 75% | 1017.8 hPa | 0 mm | 0 m/s | 261 W/m² | - |
| 1778014500 | 17.22° C | 76% | 1017.7 hPa | 0 mm | 0 m/s | 252 W/m² | - |
| 1778014196 | 17.22° C | 76% | 1017.9 hPa | 0 mm | 0.89 m/s, 194° | 248 W/m² | - |
| 1778013895 | 17.78° C | 75% | 1017.8 hPa | 0 mm | 0.45 m/s, 168° | 239 W/m² | - |
| 1778013592 | 17.22° C | 77% | 1017.9 hPa | 0 mm | 0.45 m/s, 194° | 229 W/m² | - |
| 1778013288 | 17.22° C | 76% | 1017.8 hPa | 0 mm | 0 m/s | 214 W/m² | - |
| 1778012984 | 17.22° C | 78% | 1017.8 hPa | 0 mm | 0 m/s | 236 W/m² | - |
| 1778012681 | 16.67° C | 77% | 1017.7 hPa | 0 mm | 0 m/s | 241 W/m² | - |
| 1778012377 | 17.22° C | 76% | 1017.8 hPa | 0 mm | 0 m/s | 202 W/m² | - |
| 1778012074 | 16.67° C | 76% | 1017.9 hPa | 0 mm | 0.89 m/s, 165° | 191 W/m² | - |
| 1778011772 | 17.22° C | 76% | 1018 hPa | 0 mm | 0 m/s | 187 W/m² | - |
| 1778011470 | 16.67° C | 76% | 1017.7 hPa | 0 mm | 0 m/s | 232 W/m² | - |
| 1778011165 | 17.22° C | 76% | 1017.9 hPa | 0 mm | 0 m/s | 230 W/m² | - |
| 1778010863 | 17.78° C | 75% | 1017.7 hPa | 0 mm | 0.89 m/s, 163° | 237 W/m² | - |
| 1778010560 | 17.22° C | 77% | 1018 hPa | 0 mm | 0 m/s | 253 W/m² | - |
| 1778010257 | 16.67° C | 77% | 1018 hPa | 0 mm | 0.89 m/s, 162° | 257 W/m² | - |
| 1778009957 | 17.78° C | 76% | 1017.7 hPa | 0 mm | 0.89 m/s, 128° | 224 W/m² | - |
| 1778009655 | 17.78° C | 75% | 1018.1 hPa | 0 mm | 0.89 m/s, 68° | 289 W/m² | - |
| 1778009353 | 17.78° C | 73% | 1018 hPa | 0 mm | 0.89 m/s, 148° | 414 W/m² | - |
* Rain latest hour (hover to see other rain measurements)
** Current wind speed in m/s (hover to see current wind gust speed)